Date String (YYYY-MM-DD hh:mm:ss) UTC,Instrument flags,absolute air pressure of the measurement (hPa),sample flow rate (lpm),inlet stack bypass flow (lpm),air temperature of the measurement (°C),ambient temperature measured by the external sensor (°C),aerosol sample conditioner tube jacket temperature (°C),OPC LED temperature (°C),internal box temperature (°C),relative humidity of the measurement (%),span deviation,mass concentration of particles derived from Lorenz-Mie calculation of OPC scattering (μg/m³),mass concentration of particles derived from Lorenz-Mie calculation of OPC scattering (μg/m³),mass concentration of particles derived from Lorenz-Mie calculation of OPC scattering (μg/m³)
DateTimeUTC,F1_M11,P_M11,Q1_M11,Q2_M11,T1_M11,T2_M11,T3_M11,T4_M11,T5_M11,U1_M11,ZSPAN_M11,X2_M11,X0_M11,X1_M11
2023-07-26 06:00:00,SystemResetWarning,0835.1,5.01,000.00,028.9,025.5,000.0,037.2,030.3,23.6,0000.0,0003.95,0010.96,0003.15
2023-07-26 06:01:00,SystemResetWarning,0834.8,5.01,000.00,028.9,025.8,000.0,037.2,030.3,25.3,0000.0,0003.96,0010.98,0003.15
2023-07-26 06:02:00,SystemResetWarning,0834.6,4.99,000.00,028.9,026.1,000.0,037.3,030.3,24.8,0000.0,0003.94,0010.15,0003.14
2023-07-26 06:03:00,SystemResetWarning,0834.7,4.99,000.00,028.9,026.5,000.0,037.3,030.4,24.9,0000.0,0003.93,0010.69,0003.14
2023-07-26 06:04:00,SystemResetWarning,0834.8,5.00,000.00,028.9,026.9,000.0,037.3,030.5,25.6,0000.0,0003.99,0011.06,0003.15
2023-07-26 06:05:00,SystemResetWarning,0834.7,5.01,000.00,028.9,027.2,000.0,037.3,030.6,26.2,0000.0,0003.98,0011.14,0003.15
2023-07-26 06:06:00,SystemResetWarning,0834.6,5.00,000.00,029.0,027.4,000.0,037.3,030.7,25.2,0000.0,0003.98,0010.79,0003.15
2023-07-26 06:07:00,SystemResetWarning,0834.6,5.00,000.00,029.0,027.7,000.0,037.4,030.7,25.2,0000.0,0003.99,0010.12,0003.15
2023-07-26 06:08:00,SystemResetWarning,0834.6,5.00,000.00,029.1,027.8,000.0,037.4,030.8,25.4,0000.0,0003.96,0011.19,0003.15
2023-07-26 06:09:00,SystemResetWarning,0834.7,4.99,000.00,029.1,027.3,000.0,037.4,030.8,25.1,0000.0,0003.94,0011.68,0003.15
2023-07-26 06:10:00,SystemResetWarning,0834.9,5.00,000.00,029.1,025.8,000.0,037.3,030.5,25.0,0000.0,0003.94,0012.11,0003.16
2023-07-26 06:11:00,SystemResetWarning,0835.1,5.02,000.00,029.0,025.6,000.0,037.2,030.4,25.1,0000.0,0003.96,0011.94,0003.17
2023-07-26 06:12:00,SystemResetWarning,0835.0,5.00,000.00,028.9,025.8,000.0,037.2,030.3,25.2,0000.0,0004.01,0011.89,0003.17
2023-07-26 06:13:00,SystemResetWarning,0835.1,4.98,000.00,028.9,026.2,000.0,037.3,030.4,25.3,0000.0,0004.05,0011.84,0003.18
2023-07-26 06:14:00,SystemResetWarning,0835.0,5.01,000.00,028.9,026.5,000.0,037.3,030.4,25.4,0000.0,0004.10,0011.39,0003.19
2023-07-26 06:15:00,SystemResetWarning,0834.8,5.01,000.00,028.9,026.9,000.0,037.3,030.5,25.4,0000.0,0004.05,0011.10,0003.19
2023-07-26 06:16:00,SystemResetWarning,0834.7,4.99,000.00,029.0,027.2,000.0,037.3,030.6,25.3,0000.0,0004.10,0010.69,0003.21
2023-07-26 06:17:00,SystemResetWarning,0834.8,5.00,000.00,029.0,027.4,000.0,037.4,030.7,25.2,0000.0,0004.14,0010.77,0003.21
2023-07-26 06:18:00,SystemResetWarning,0834.6,4.99,000.00,029.0,027.7,000.0,037.4,030.8,25.0,0000.0,0004.20,0010.72,0003.21
2023-07-26 06:19:00,SystemResetWarning,0834.8,5.00,000.00,029.1,027.9,000.0,037.4,030.8,24.6,0000.0,0004.22,0009.60,0003.21
2023-07-26 06:20:00,SystemResetWarning,0834.7,5.00,000.00,029.1,027.7,000.0,037.4,030.8,24.7,0000.0,0004.22,0009.05,0003.21
2023-07-26 06:21:00,SystemResetWarning,0834.6,5.01,000.00,029.1,026.1,000.0,037.3,030.6,24.9,0000.0,0004.20,0008.69,0003.21
2023-07-26 06:22:00,SystemResetWarning,0834.6,5.00,000.00,029.0,025.5,000.0,037.2,030.5,25.2,0000.0,0004.17,0008.90,0003.21
2023-07-26 06:23:00,SystemResetWarning,0834.7,5.00,000.00,029.0,025.7,000.0,037.3,030.3,24.7,0000.0,0004.24,0009.56,0003.21
2023-07-26 06:24:00,SystemResetWarning,0834.6,5.02,000.00,028.9,026.1,000.0,037.3,030.4,25.0,0000.0,0004.25,0009.86,0003.22
2023-07-26 06:25:00,SystemResetWarning,0834.6,4.99,000.00,028.9,026.4,000.0,037.3,030.5,25.2,0000.0,0004.25,0009.91,0003.22
2023-07-26 06:26:00,SystemResetWarning,0834.6,5.00,000.00,028.9,026.8,000.0,037.4,030.5,25.0,0000.0,0004.29,0010.00,0003.24
2023-07-26 06:27:00,SystemResetWarning,0834.7,5.00,000.00,029.0,027.1,000.0,037.4,030.6,24.9,0000.0,0004.32,0010.02,0003.24
2023-07-26 06:28:00,SystemResetWarning,0834.7,5.00,000.00,029.0,027.4,000.0,037.4,030.7,24.8,0000.0,0004.40,0011.05,0003.26
2023-07-26 06:29:00,SystemResetWarning,0834.6,5.00,000.00,029.0,027.6,000.0,037.4,030.7,24.8,0000.0,0004.37,0012.01,0003.27
2023-07-26 06:30:00,SystemResetWarning,0834.7,5.00,000.00,029.1,027.8,000.0,037.4,030.8,24.6,0000.0,0004.39,0012.05,0003.29
2023-07-26 06:31:00,SystemResetWarning,0834.9,4.99,000.00,029.1,027.0,000.0,037.4,030.7,24.6,0000.0,0004.45,0012.70,0003.30
2023-07-26 06:32:00,SystemResetWarning,0834.6,5.01,000.00,029.1,025.6,000.0,037.3,030.5,24.1,0000.0,0004.50,0012.79,0003.30
2023-07-26 06:33:00,SystemResetWarning,0834.8,5.01,000.00,029.0,025.5,000.0,037.2,030.4,24.2,0000.0,0004.50,0012.45,0003.31
2023-07-26 06:34:00,SystemResetWarning,0834.8,5.00,000.00,028.9,025.8,000.0,037.3,030.3,24.6,0000.0,0004.41,0011.83,0003.31
2023-07-26 06:35:00,SystemResetWarning,0834.8,5.00,000.00,028.9,026.1,000.0,037.3,030.4,24.6,0000.0,0004.37,0011.43,0003.32
2023-07-26 06:36:00,SystemResetWarning,0835.1,5.00,000.00,028.9,026.5,000.0,037.3,030.4,24.5,0000.0,0004.38,0011.31,0003.33
2023-07-26 06:37:00,SystemResetWarning,0835.0,5.00,000.00,028.9,026.9,000.0,037.4,030.5,24.4,0000.0,0004.35,0011.32,0003.32
2023-07-26 06:38:00,SystemResetWarning,0835.2,5.00,000.00,029.0,027.2,000.0,037.4,030.6,24.4,0000.0,0004.30,0012.10,0003.31
2023-07-26 06:39:00,SystemResetWarning,0834.9,5.00,000.00,029.0,027.4,000.0,037.4,030.7,24.4,0000.0,0004.20,0011.13,0003.30
2023-07-26 06:40:00,SystemResetWarning,0834.6,5.00,000.00,029.0,027.6,000.0,037.4,030.7,24.2,0000.0,0004.17,0009.89,0003.29
2023-07-26 06:41:00,SystemResetWarning,0834.7,5.00,000.00,029.1,027.8,000.0,037.4,030.8,24.1,0000.0,0004.19,0009.85,0003.29
2023-07-26 06:42:00,SystemResetWarning,0834.6,4.99,000.00,029.1,027.4,000.0,037.4,030.8,24.1,0000.0,0004.16,0009.45,0003.26
2023-07-26 06:43:00,SystemResetWarning,0834.6,4.99,000.00,029.1,025.5,000.0,037.3,030.5,23.9,0000.0,0004.10,0009.02,0003.27
2023-07-26 06:44:00,SystemResetWarning,0834.8,5.01,000.00,029.0,024.5,000.0,037.2,030.3,24.1,0000.0,0004.07,0009.24,0003.27
2023-07-26 06:45:00,SystemResetWarning,0835.1,5.01,000.00,028.9,024.6,000.0,037.2,030.1,24.3,0000.0,0004.05,0009.85,0003.27
2023-07-26 06:46:00,SystemResetWarning,0835.0,4.99,000.00,028.8,025.1,000.0,037.2,030.0,24.5,0000.0,0004.04,0009.86,0003.27
2023-07-26 06:47:00,SystemResetWarning,0834.7,5.00,000.00,028.8,025.5,000.0,037.2,030.1,24.7,0000.0,0004.02,0010.49,0003.27
2023-07-26 06:48:00,SystemResetWarning,0834.8,5.01,000.00,028.8,026.0,000.0,037.2,030.2,24.8,0000.0,0003.98,0010.38,0003.26
2023-07-26 06:49:00,SystemResetWarning,0834.6,5.00,000.00,028.8,026.4,000.0,037.3,030.3,25.2,0000.0,0004.00,0009.66,0003.25
2023-07-26 06:50:00,SystemResetWarning,0834.7,5.00,000.00,027.9,026.3,000.0,035.3,028.3,25.6,0000.0,0004.00,0009.39,0003.25
2023-07-26 06:51:00,SystemResetWarning,0834.6,5.00,000.00,028.8,027.1,000.0,037.3,030.5,25.6,0000.0,0003.99,0009.38,0003.25
2023-07-26 06:52:00,SystemResetWarning,0834.7,5.01,000.00,028.9,027.3,000.0,037.3,030.6,25.2,0000.0,0003.99,0009.47,0003.24
2023-07-26 06:53:00,SystemResetWarning,0834.6,5.00,000.00,028.9,027.6,000.0,037.3,030.6,25.2,0000.0,0003.97,0009.52,0003.24
2023-07-26 06:54:00,SystemResetWarning,0834.7,5.00,000.00,029.0,027.7,000.0,037.3,030.7,24.7,0000.0,0003.95,0009.51,0003.22
2023-07-26 06:55:00,SystemResetWarning,0834.9,4.99,000.00,029.0,027.9,000.0,037.4,030.7,24.8,0000.0,0003.93,0009.76,0003.20
2023-07-26 06:56:00,SystemResetWarning,0834.9,5.00,000.00,029.0,028.0,000.0,037.4,030.8,24.6,0000.0,0003.96,0009.36,0003.18
2023-07-26 06:57:00,SystemResetWarning,0834.9,4.99,000.00,029.1,027.4,000.0,037.4,030.8,24.8,0000.0,0003.98,0009.42,0003.17
2023-07-26 06:58:00,SystemResetWarning,0835.1,5.00,000.00,029.0,025.5,000.0,037.2,030.5,24.3,0000.0,0003.99,0008.87,0003.16
2023-07-26 06:59:00,SystemResetWarning,0835.1,5.01,000.00,028.9,024.5,000.0,037.1,030.2,24.3,0000.0,0004.00,0009.41,0003.15
